Home   Weather   Olympia   Past weeks
Flag for Greece

Past Weather in Olympia, Greece — Yesterday and Last 2 Weeks

Now
82 °F

Passing clouds.


Feels Like: 82 °F
Forecast: 92 / 63 °F
Wind: 8 mph from Northwest

Location: Andravida Airport

Current Time: Jul 19, 2019 at 1:22:09 pm

Latest Report: Jul 19, 2019 at 12:50 pm


Visibility: N/A

Pressure: 29.95 "Hg

Humidity: 40%

Dew Point: 55 °F

Location of OlympiaLocation

Past Weather in Olympia — Graph

°F

Olympia Temperature Yesterday

Maximum temperature yesterday: 88 °F (at 4:20 pm)
Minimum temperature yesterday: 61 °F (at 6:20 am)
Average temperature yesterday: 75 °F

High & Low Weather Summary for the Past Weeks

 TemperatureHumidityPressure
High97 °F (Jul 10, 1:20 pm)100% (Jul 9, 1:50 am)29.95 "Hg (Jul 9, 1:50 am)
Low61 °F (Jul 18, 6:20 am)26% (Jul 8, 3:50 pm)29.59 "Hg (Jul 16, 6:20 pm)
Average78 °F66%29.81 "Hg
* Reported Jul 4 11:20 am — Jul 19 11:50 am, Olympia. Weather by CustomWeather, © 2019

Note: Actual official high and low records may vary slightly from our data, if they occured in-between our weather recording intervals... More about our weather records

Advertising

Olympia Weather History for the Previous 24 Hours

Scroll right to see more
 ConditionsComfort  
Time TempWeatherWind HumidityBarometerVisibility
11:50 am
Fri, Jul 19
82 °FPassing clouds.8 mph42%29.95 "HgN/A
11:20 am81 °FPassing clouds.8 mph45%29.95 "HgN/A
10:50 am81 °FPassing clouds.8 mph45%29.95 "HgN/A
10:20 am79 °FPassing clouds.9 mph54%29.95 "HgN/A
9:20 am77 °FPassing clouds.6 mph69%29.95 "HgN/A
8:50 am75 °FPassing clouds.No wind69%29.95 "HgN/A
8:20 am73 °FPassing clouds.No wind74%29.95 "HgN/A
7:50 am68 °FPassing clouds.No wind83%29.92 "HgN/A
7:20 am66 °FPassing clouds.No wind88%29.92 "HgN/A
6:50 am64 °FPassing clouds.No wind88%29.92 "HgN/A
6:20 am64 °FPassing clouds.No wind88%29.92 "HgN/A
5:50 am64 °FPassing clouds.No wind83%29.92 "HgN/A
5:20 am66 °FClear.No wind83%29.92 "Hg10 mi
4:50 am64 °FClear.No wind88%29.92 "Hg10 mi
4:20 am66 °FClear.No wind83%29.92 "Hg10 mi
3:50 am66 °FClear.No wind83%29.92 "Hg10 mi
3:20 am66 °FClear.No wind83%29.92 "Hg10 mi
2:50 am66 °FClear.No wind83%29.92 "Hg10 mi
2:20 am66 °FClear.No wind83%29.92 "Hg10 mi
1:50 am68 °FClear.No wind78%29.92 "Hg10 mi
1:20 am66 °FClear.No wind83%29.92 "Hg10 mi
12:50 am66 °FClear.No wind83%29.95 "Hg10 mi
12:20 am68 °FClear.No wind78%29.92 "Hg10 mi
11:50 pm
Thu, Jul 18
70 °FClear.No wind73%29.92 "Hg10 mi
11:20 pm70 °FPassing clouds.No wind73%29.92 "HgN/A
10:50 pm72 °FPassing clouds.No wind69%29.92 "HgN/A
10:20 pm73 °FPassing clouds.No wind65%29.92 "HgN/A
9:50 pm72 °FPassing clouds.No wind73%29.92 "HgN/A
9:20 pm75 °FPassing clouds.No wind65%29.89 "HgN/A
8:50 pm77 °FPassing clouds.No wind57%29.89 "HgN/A
8:20 pm81 °FPassing clouds.3 mph48%29.86 "HgN/A
7:50 pm81 °FPassing clouds.7 mph48%29.86 "HgN/A
7:20 pm81 °FPassing clouds.8 mph48%29.86 "HgN/A
6:50 pm84 °FPassing clouds.7 mph35%29.86 "HgN/A
6:20 pm84 °FPassing clouds.7 mph35%29.86 "HgN/A
5:50 pm84 °FPassing clouds.9 mph45%29.86 "HgN/A
5:20 pm86 °FPassing clouds.8 mph33%29.86 "HgN/A
4:20 pm88 °FPassing clouds.8 mph27%29.86 "HgN/A
3:50 pm86 °FPassing clouds.9 mph33%29.86 "HgN/A
3:20 pm86 °FPassing clouds.9 mph31%29.86 "HgN/A
2:50 pm86 °FPassing clouds.9 mph31%29.86 "HgN/A
2:20 pm86 °FPassing clouds.8 mph33%29.86 "HgN/A
1:50 pm84 °FPassing clouds.9 mph35%29.86 "HgN/A
1:20 pm84 °FPassing clouds.7 mph37%29.86 "HgN/A
Weather by CustomWeather, © 2019

See weather overview